カタログに戻る

STARLINK-31258

運用中通信VLEO
NORAD 58829·PAYLOAD·🇺🇸 United States

打ち上げ Jan 24, 2024 から Vandenberg Space Force Base

Loading…

次のパス (今後24時間)

TLE

最新Source: CelesTrak SupGP

元期: Sep 14, 2026, 20:42 UTC

1 58829C 24017D   26257.86298611  .00025453  00000+0  75228-3 0  2571
2 58829  53.1591  43.7639 0001199  84.0005 354.2704 15.34366282    13

AllMySatでSTARLINK-31258をリアルタイム追跡

Download on the App Store